CAPE
99 1102 1863 1677 1785 1645 1389 960 1058 1397 1355 1527 1101 1334 1411 1551 1258 1011 1040 1331 1201 1445 1606 2024 1726 1819 1919 1999 2003 1922 2026 2184 2142 2036 2097 2078 1777 2002 2107 1979 1958 1634 1659
315 1179 2039 2042 1721 1734 1710 1498 1253 1494 1431 1263 1197 949 1105 1055 1046 956 914 1236 1267 1355 1643 1810 1848 1745 1812 1866 1955 1974 2095 2175 2474 1678 1704 1897 1915 1611 1508 1566 1812 1750 2006
550 1268 1471 1949 1420 1571 1544 1581 1550 1417 1005 1207 1210 976 1003 1002 841 999 1319 1270 1219 1533 1612 1793 1791 1789 1814 1757 1725 1955 1955 2170 2155 1695 1716 1121 1329 1985 1780 2095 2105 1637 1654
714 991 1209 1990 1907 1083 1175 1190 923 1156 1269 1136 1118 1060 998 972 1097 1014 1375 1202 1066 1470 1698 1763 1794 1713 1737 1718 1715 1805 1784 1832 1887 1625 1018 1129 1314 1828 1990 1985 1702 1465 1282
415 755 1111 1847 2015 1478 1417 1313 1198 1218 1257 1220 1205 1204 1081 953 942 1194 1374 1273 885 1282 1708 1761 1729 1645 1508 1345 1544 1601 1620 1643 1909 971 851 908 1120 1533 2045 2108 1660 1454 1714
405 878 1468 1628 1407 1350 1518 1208 1342 1415 929 880 917 935 649 719 966 907 1140 1266 1172 1040 1475 1775 1256 1270 1528 1486 1411 850 939 1094 948 579 853 1200 1425 1608 1870 1769 1828 1895 2210
618 972 1266 2007 1564 1282 1690 1262 1213 941 793 756 533 713 701 122 259 504 775 1171 1283 895 1031 1571 1635 1337 1327 1360 1031 1135 993 922 863 507 896 971 1268 2167 1747 2069 1843 1872 2129
810 1079 1023 1556 1270 1187 1540 1142 1543 1078 957 438 378 592 500 428 413 211 954 997 1287 1083 764 888 1052 1337 1403 1222 1273 1134 1014 954 440 435 561 1007 2169 2396 1947 1780 1896 1970 1833
965 904 955 1073 998 1149 1334 1530 1172 1213 730 19 5 158 212 395 613 428 475 1199 1216 1240 1191 828 832 1025 1161 1337 1134 913 857 816 390 308 568 1153 2251 1945 1737 1730 1825 1841 1863
752 842 1009 952 837 711 959 1303 1367 917 753 50 26 26 8 6 0 217 849 982 1317 1212 1244 1319 1242 1221 1299 1128 956 764 724 871 568 281 593 1035 2008 1926 1605 1616 1802 1774 1768
504 856 878 883 613 625 745 1003 1031 940 948 490 215 118 0 0 0 0 195 854 847 837 889 1258 1296 1153 1066 1184 1188 1058 876 499 471 370 415 1156 1898 1553 1472 1402 1516 1629 1603
360 503 809 948 699 553 752 988 965 828 674 134 20 11 0 0 0 0 164 527 767 807 1071 1041 983 893 795 546 567 820 745 419 417 413 287 1261 1698 1452 1481 1495 1512 1447 1601
267 433 604 704 640 670 647 736 761 825 613 93 48 23 2 0 4 0 0 143 366 522 648 815 889 848 749 506 354 333 358 244 299 376 336 1087 1889 1362 1262 1176 1317 1306 1116
323 479 323 343 273 200 165 557 461 523 655 65 62 119 69 26 19 32 0 0 56 402 468 583 545 563 556 435 330 305 243 274 188 619 356 1507 2001 1807 1009 690 863 922 944
378 377 273 447 373 511 270 489 479 669 319 32 182 197 140 172 222 165 105 0 0 44 290 323 299 310 315 195 230 227 243 260 212 329 271 1412 1590 1803 2022 1174 1037 1383 1322
478 485 418 486 588 672 578 905 617 551 110 152 150 141 175 136 308 304 297 109 20 41 50 211 260 164 174 187 175 238 160 223 281 273 166 305 1274 1710 2245 2434 1749 1664 1520
481 549 480 527 617 838 782 927 550 520 205 237 311 354 337 227 279 459 192 303 90 163 196 107 165 382 371 338 136 156 316 348 232 343 205 124 425 1532 1708 2663 2375 2188 1760
558 598 446 347 250 482 755 685 625 580 317 377 325 515 686 422 313 320 380 452 324 201 140 205 298 338 440 337 118 162 249 237 216 347 369 247 252 349 566 2185 2531 2423 1926
395 639 539 272 252 320 370 823 1022 963 653 475 305 597 727 727 512 402 367 576 410 323 201 282 402 303 421 135 345 497 355 374 378 565 389 295 189 236 173 575 1494 1359 1835
211 667 455 177 382 631 664 897 1177 1060 620 698 526 1007 1027 799 592 381 462 827 838 682 221 413 370 330 445 339 377 455 442 522 330 595 459 336 313 313 285 281 159 652 1495
490 577 344 248 611 800 865 853 635 625 492 630 1121 1250 1155 1151 1251 830 513 773 813 548 418 633 591 670 338 374 551 591 582 539 582 439 483 420 427 433 483 460 300 149 270
272 428 419 589 658 691 855 842 677 851 743 940 1339 1688 1428 1591 1559 1016 935 789 1016 997 904 745 659 625 584 457 383 407 434 253 400 472 458 592 481 482 650 721 596 431 294
45 556 564 663 611 683 633 471 998 752 959 1327 1538 1238 1714 1724 1705 1439 1155 1037 952 1052 822 1016 903 717 760 775 709 340 284 258 200 214 337 505 665 596 438 277 263 441 396
20 516 478 669 524 309 524 512 719 376 322 944 1199 1107 1698 1785 1898 1621 1530 1237 980 994 788 947 1043 914 820 708 556 581 620 465 392 236 255 200 290 330 420 275 269 410 384
336 428 313 457 413 378 334 413 624 461 114 894 1312 1026 758 835 1646 1890 1784 1307 1459 1295 1027 829 1094 1132 1009 1016 733 604 379 482 526 452 428 251 227 246 168 194 231 183 85
299 314 199 280 470 377 224 430 604 643 488 994 1100 950 1068 1397 1719 1998 1723 1697 1709 1581 1441 1286 1244 1052 1172 1295 977 883 725 584 500 377 414 366 361 364 406 426 307 269 98
CIN
-43 -1 0 0 0 0 0 0 -1 0 0 0 -8 -3 -8 -9 -25 -24 -20 -9 -14 -4 0 0 0 0 0 0 0 0 0 0 0 0 0 0 0 0 0 0 0 0 -2
-76 -1 0 0 0 0 0 0 0 0 0 0 -1 -4 -3 -15 -20 -19 -11 -3 -3 0 0 0 0 0 0 0 0 0 0 0 0 0 0 0 0 0 0 0 0 0 0
-53 -1 0 0 0 0 0 0 0 0 0 0 0 0 0 0 -5 -3 0 0 -1 0 0 0 0 0 0 0 0 0 0 0 0 0 0 -8 -1 0 0 0 0 0 0
-59 -16 -1 0 0 0 0 0 0 0 0 0 0 0 0 0 0 0 0 0 0 0 0 0 0 0 0 0 0 0 0 0 0 -4 -13 -5 -1 0 0 0 0 0 -13
-100 -49 -9 0 0 0 0 0 0 0 0 0 0 0 0 0 0 0 0 0 -2 -2 0 0 0 0 0 0 0 -1 -1 0 0 -13 -18 -19 -4 0 0 0 0 0 0
-124 -55 -2 0 0 0 0 0 0 0 0 0 0 0 -1 0 0 0 0 0 0 0 0 0 -4 -2 0 0 -6 -5 -4 -3 -3 -13 -15 -18 -2 0 0 0 0 0 0
-122 -52 -12 0 0 0 0 0 0 0 0 0 -2 0 0 -20 -9 -1 0 0 0 -1 -4 -1 -3 -8 -7 -6 -12 -8 -11 -8 -29 -27 -31 -25 -7 0 0 0 0 0 0
-132 -48 -22 0 0 0 0 0 0 0 0 -7 -4 0 -1 -1 -1 -15 0 0 0 0 -10 -14 -10 -6 -5 -2 -8 -16 -15 -9 -33 -39 -48 -37 -4 0 0 0 0 0 0
-102 -82 -49 -27 -23 -4 0 0 0 0 -6 -29 -52 -58 -26 -9 -1 0 -2 0 0 0 0 -12 -18 -20 -10 -3 -9 -12 -21 -14 -37 -55 -50 -34 -1 -1 0 0 0 0 0
-120 -91 -68 -62 -63 -68 -32 0 0 -1 -4 -25 -43 -30 -27 -17 0 -6 0 0 0 0 0 0 -4 -15 -13 -15 -22 -21 -21 -8 -16 -45 -51 -46 -4 -1 -1 0 0 0 0
-131 -104 -89 -87 -92 -90 -59 -15 -4 0 0 -3 -14 -12 0 0 0 0 -12 0 0 0 0 0 0 -12 -21 -19 -24 -27 -20 -34 -16 -31 -63 -39 -16 -8 -4 0 0 0 0
-150 -129 -103 -91 -108 -103 -68 -29 -25 -19 -9 -54 -49 -39 0 0 0 0 -6 0 0 0 0 0 0 -9 -27 -45 -47 -38 -32 -43 -15 -15 -15 -31 -14 0 -1 -1 0 0 0
-161 -151 -125 -118 -121 -102 -79 -62 -49 -25 -22 -63 -28 -27 -28 0 -78 0 0 -8 -1 -1 -2 -1 0 -8 -26 -45 -58 -65 -60 -60 -28 -28 -44 -33 -4 0 0 -1 -1 0 -1
-112 -123 -127 -118 -116 -160 -152 -90 -68 -71 -36 -25 -79 -40 -32 -39 -111 -139 0 0 -53 -14 -14 -15 -24 -31 -37 -53 -53 -45 -56 -57 -60 -102 -70 -16 -5 0 0 -14 -9 -8 -3
-31 -93 -88 -46 -76 -86 -143 -131 -92 -68 -70 -95 -91 -51 -50 -40 -32 -59 -107 0 0 -75 -38 -39 -47 -53 -62 -74 -91 -72 -76 -43 -64 -62 -45 -24 -19 -6 0 -1 -5 0 0
-18 -33 -51 -56 -91 -77 -61 -89 -99 -97 -60 -47 -77 -18 -40 -40 -34 -32 -37 -87 -113 -62 -78 -49 -55 -61 -67 -40 -11 -67 -59 -153 -88 -99 -173 -74 -12 -4 -1 0 0 0 0
-22 -69 -56 -75 -67 -58 -66 -86 -97 -94 -51 -77 -68 -50 -38 -59 -97 -61 -99 -44 -145 -71 -45 -70 -47 -30 -28 -23 -21 -25 -19 -33 -114 -85 -48 -24 -68 -5 -2 0 0 0 0
-85 -66 -30 -88 -42 -56 -44 -30 -41 -31 -34 -93 -139 -74 -28 -59 -117 -71 -46 -48 -85 -94 -73 -38 -25 -19 -22 -14 -27 -60 -39 -37 -38 -114 -159 -26 -151 -103 -58 0 -1 -1 0
-63 -45 -37 -9 -116 -132 -46 -33 -45 -38 -38 -28 -231 -26 -79 -42 -62 -14 -79 -51 -90 -91 -107 -35 -18 -23 -12 -32 -32 -34 -41 -38 -33 -99 -143 -34 -20 -16 -28 -78 -14 -13 0
-194 -49 -48 -18 -27 -15 -28 -19 -37 -24 -24 -37 -73 -19 -104 -31 -37 -31 -75 -55 -53 -41 -98 -38 -28 -18 -18 -9 -48 -21 -19 -19 -97 -82 -89 -36 -59 -23 -113 -55 -80 -46 -4
-40 -37 -71 -30 -22 -34 -28 -46 -47 -26 -38 -46 -128 -33 -38 -28 -22 -16 -45 -64 -63 -73 -73 -35 -30 -33 -25 -44 -28 -14 -16 -45 -33 -102 -60 -50 -39 -120 -134 -37 -26 -47 -74
-43 -55 -34 -39 -38 -28 -32 -26 -45 -41 -47 -53 -88 -73 -60 -27 -32 -26 -17 -15 -48 -27 -22 -28 -30 -22 -17 -21 -15 -16 -9 -9 -41 -39 -73 -47 -53 -83 -120 -45 -40 -61 -66
-70 -35 -50 -58 -66 -78 -79 -107 -32 -31 -46 -38 -47 -67 -30 -34 -33 -13 -25 -26 -69 -48 -47 -20 -20 -22 -15 -15 -15 -15 -6 -19 -18 -41 -86 -70 -113 -61 -53 -62 -53 -69 -67
-38 -44 -94 -90 -99 -136 -81 -48 -33 -12 -13 -22 -36 -47 -28 -28 -39 -17 -34 -40 -39 -24 -21 -43 -30 -20 -24 -29 -24 -21 -22 -17 -11 -26 -94 -74 -56 -56 -31 -75 -152 -111 -70
-54 -75 -122 -135 -93 -85 -151 -122 -56 -25 -102 -23 -35 -24 -30 -35 -20 -29 -21 -22 -38 -14 -30 -51 -47 -29 -23 -14 -21 -27 -23 -15 -29 -32 -21 -42 -52 -51 -81 -47 -61 -66 -278
-99 -103 -138 -213 -134 -107 -172 -126 -137 -51 -66 -42 -57 -21 -109 -113 -54 -30 -35 -27 -32 -24 -25 -38 -36 -35 -28 -15 -17 -17 -16 -20 -22 -23 -10 -33 -42 -46 -56 -38 -44 -51 -43
Wind_Speed
nan 15 13 12 12 14 13 11 9 8 12 9 2 4 6 4 1 1 1 5 6 8 8 8 7 7 8 8 6 7 8 7 8 9 9 10 12 14 12 12 9 10 10
11 12 13 12 11 12 13 12 10 11 12 9 1 2 4 4 3 3 3 3 6 7 7 6 7 7 7 7 8 8 9 10 10 11 11 13 15 16 16 17 14 14 15
10 9 8 10 11 11 12 13 12 10 11 11 2 3 3 5 4 3 2 3 4 4 5 7 6 7 6 7 8 8 8 8 8 7 7 13 16 16 20 17 17 16 15
9 6 5 8 10 11 10 10 11 10 7 10 7 2 1 2 5 3 1 0 2 5 5 6 7 6 5 6 7 9 10 11 9 9 11 12 14 16 17 16 16 17 16
8 5 6 10 10 10 11 11 10 10 8 9 7 6 3 1 1 3 0 1 0 6 7 6 5 4 5 7 7 9 11 14 8 8 10 11 13 15 16 16 18 18 16
6 4 10 13 13 12 11 12 13 12 10 15 11 10 8 5 3 1 2 2 3 5 5 6 5 5 6 5 7 7 9 13 12 9 11 11 11 15 15 16 17 18 15
8 5 8 13 14 13 12 12 15 16 16 19 19 14 10 5 3 2 1 2 3 5 6 5 7 8 7 5 5 6 8 11 9 11 11 11 12 16 15 15 15 16 17
13 9 8 13 16 15 14 16 19 20 20 17 13 11 11 8 4 2 0 2 4 5 6 7 6 8 9 8 5 4 6 6 4 8 10 10 11 13 14 14 14 14 14
14 13 9 9 14 17 15 18 19 22 23 nan nan 6 11 11 9 4 1 0 3 4 4 6 7 8 10 8 8 5 4 4 2 6 9 7 14 16 16 16 14 13 13
11 12 8 8 10 10 13 20 22 23 20 nan nan nan nan nan nan 9 5 1 3 5 4 4 7 7 7 7 8 9 6 4 4 8 7 8 16 17 16 15 15 15 14
13 10 9 8 7 7 10 13 20 26 20 12 10 3 nan nan nan nan 7 2 3 5 5 4 5 7 6 6 9 9 6 6 6 4 6 12 17 19 18 15 14 12 14
10 9 6 6 7 6 8 8 13 18 12 6 nan nan nan nan nan nan 6 3 4 4 6 6 6 5 5 2 4 7 2 3 1 5 4 12 14 17 18 18 16 15 13
7 8 6 6 7 7 6 7 9 12 11 nan nan nan nan nan nan nan nan 8 6 4 3 4 4 2 2 2 3 3 3 4 4 5 6 13 14 15 16 17 18 17 16
11 7 4 7 4 6 8 8 11 11 7 nan nan 3 nan nan nan nan nan nan nan 4 4 3 4 5 5 6 6 5 3 4 6 5 7 16 14 15 16 18 16 16 17
14 11 8 9 4 8 8 9 6 5 8 nan 7 4 9 14 14 11 7 nan nan nan 4 5 6 6 7 8 6 7 6 6 5 6 6 15 14 16 14 16 16 17 17
20 12 12 8 5 7 7 9 4 4 1 7 5 4 8 17 18 12 8 6 nan nan nan 4 5 6 7 6 7 8 9 8 7 8 10 6 12 11 12 15 15 16 17
20 22 11 8 5 4 7 6 4 3 5 10 15 21 18 14 27 22 10 7 nan 5 5 4 5 3 3 4 5 7 10 9 9 7 8 7 5 9 11 15 15 17 17
19 22 15 11 6 3 4 1 2 2 6 13 14 19 21 20 22 20 12 8 5 4 3 3 4 2 3 3 1 4 6 8 10 8 9 5 6 7 4 12 15 17 17
13 16 16 7 4 4 7 4 2 4 9 11 16 13 13 19 18 14 8 7 4 3 4 4 4 3 2 4 1 3 5 5 5 3 6 7 8 9 7 7 12 13 16
15 15 12 8 2 9 10 9 11 4 6 8 12 14 10 11 12 8 10 4 1 3 4 3 6 5 3 3 2 1 4 5 3 5 7 5 9 15 7 9 8 6 12
17 14 7 10 13 9 10 8 11 11 8 8 10 13 11 12 10 9 6 2 1 2 4 5 4 5 4 6 4 2 1 6 2 4 8 10 10 15 12 8 11 13 8
13 12 15 15 6 10 9 9 9 8 9 7 10 10 8 7 8 5 3 1 2 3 5 7 8 6 4 7 5 4 4 4 5 6 5 11 11 14 13 13 10 7 14
nan 21 20 11 6 9 9 9 12 12 9 7 7 8 8 6 4 3 3 4 4 4 5 8 10 11 6 5 7 7 6 6 9 8 8 11 11 16 10 17 11 9 7
nan 17 14 10 9 11 9 10 9 10 7 8 4 5 5 3 2 3 5 5 8 10 13 13 14 13 13 8 8 5 6 11 11 7 8 7 8 9 14 14 12 14 13
10 13 14 13 11 11 9 8 8 9 9 8 7 4 3 0 3 6 10 11 10 8 8 10 13 16 16 14 13 11 12 11 13 14 10 9 12 10 13 13 16 15 nan
16 12 10 10 10 8 6 4 4 4 5 6 6 3 2 2 6 9 11 13 14 14 16 16 16 16 13 16 19 18 17 16 13 14 15 12 14 16 15 16 17 18 nan
Wind_Direction
nan 71 31 27 25 6 11 13 357 354 340 343 318 326 345 338 42 88 101 84 99 115 121 123 107 92 77 70 56 44 41 26 18 21 19 18 17 23 19 15 22 50 28
29 57 23 20 16 4 5 10 1 358 358 2 29 347 12 358 24 50 71 51 78 95 103 94 87 77 57 50 47 41 33 24 21 9 13 21 20 15 21 22 23 32 24
10 36 24 9 4 1 358 7 360 355 9 4 344 32 41 32 31 62 62 62 33 49 65 79 67 63 61 54 51 47 34 32 21 12 10 80 66 27 22 24 10 14 25
348 18 17 3 353 354 351 352 354 350 360 354 336 336 24 51 18 40 88 151 49 28 31 48 55 48 54 60 52 46 35 27 10 5 65 49 49 22 27 20 15 16 16
337 352 346 340 338 341 339 342 341 341 323 336 317 308 280 255 61 9 331 200 303 30 11 32 38 27 39 47 53 46 36 30 39 48 70 55 58 35 23 19 13 13 10
319 321 328 327 321 327 346 337 332 329 321 323 307 279 274 275 227 154 7 330 322 5 11 13 22 27 24 44 53 47 55 53 63 68 62 47 49 22 16 17 19 18 9
294 300 319 312 308 323 326 336 336 329 325 310 309 267 264 272 261 224 305 11 348 348 352 3 22 7 15 21 57 57 80 80 76 51 52 50 46 22 19 14 13 17 14
293 287 298 304 305 318 321 338 338 335 334 331 323 258 236 234 211 188 170 354 349 348 342 343 6 8 359 6 33 56 76 111 27 61 43 45 20 10 7 13 14 15 15
279 274 283 297 306 313 330 345 345 344 347 nan nan 207 207 203 206 195 194 153 324 329 9 348 357 9 6 11 2 24 24 58 354 46 37 42 4 9 8 7 12 14 14
277 269 268 277 293 314 330 342 351 351 355 nan nan nan nan nan nan 180 176 116 6 333 347 9 6 15 19 35 26 31 59 83 69 17 42 36 2 6 8 6 7 8 10
257 257 247 268 290 315 327 0 355 354 359 2 11 347 nan nan nan nan 165 69 33 358 333 6 23 26 34 45 65 59 57 76 77 27 40 50 5 8 6 6 6 10 13
256 248 232 258 288 310 334 3 355 356 0 348 nan nan nan nan nan nan 163 107 59 36 10 1 17 26 42 109 104 102 335 37 45 10 35 27 9 17 12 6 6 4 14
257 242 223 245 283 299 312 332 334 345 331 nan nan nan nan nan nan nan nan 152 141 63 117 37 48 75 41 34 79 62 356 340 314 321 353 5 11 20 22 14 10 12 14
280 248 225 266 273 275 273 313 322 323 340 nan nan 245 nan nan nan nan nan nan nan 117 86 53 48 45 42 48 46 65 10 326 299 307 324 349 357 13 11 15 16 10 11
229 247 247 264 256 271 287 326 316 351 18 nan 292 224 183 168 164 164 163 nan nan nan 45 41 50 51 49 54 55 26 15 331 325 279 267 356 359 4 4 5 7 9 6
185 232 216 238 254 256 342 311 9 359 48 31 111 156 181 199 172 139 144 128 nan nan nan 40 50 60 59 44 46 40 18 338 316 305 270 326 7 357 4 358 357 355 3
193 181 196 220 205 257 298 318 335 319 37 62 51 56 72 97 144 140 150 119 nan 73 33 44 61 53 83 66 46 2 356 347 320 326 296 281 298 12 10 355 351 350 355
187 173 167 183 182 164 235 77 273 330 64 66 86 73 67 97 116 143 143 125 90 82 59 36 41 79 30 334 336 352 354 357 355 348 341 334 312 283 339 19 9 351 359
155 161 156 169 178 119 142 134 87 12 58 67 75 102 86 91 113 115 133 113 69 36 22 20 46 9 345 322 334 71 77 40 31 4 4 1 356 331 305 354 22 5 12
137 147 171 159 186 131 135 135 119 137 93 68 80 96 95 95 106 109 112 107 31 337 8 5 21 11 342 278 258 284 58 82 34 38 54 29 360 2 295 274 266 294 15
159 158 150 133 125 135 132 123 136 128 110 95 85 77 75 73 75 86 92 84 37 342 6 1 2 23 357 303 263 257 3 33 22 32 331 345 358 349 342 280 261 277 270
134 139 142 115 138 114 124 141 118 116 119 117 73 74 79 75 57 76 48 18 348 324 350 352 339 341 345 319 305 269 281 251 267 2 310 345 342 311 310 284 268 270 277
nan 109 126 121 129 117 107 147 153 144 155 148 131 110 88 50 37 42 19 314 336 335 356 353 345 331 322 298 326 308 275 311 283 278 321 328 341 332 292 303 274 269 274
nan 119 108 110 122 115 108 130 120 126 136 124 111 95 84 61 6 341 1 339 336 339 359 355 340 346 345 332 296 297 298 305 311 292 300 321 328 334 332 328 325 301 270
113 123 92 99 104 108 119 120 131 139 150 159 145 136 136 216 1 18 337 335 337 331 339 346 332 336 334 330 321 301 295 283 288 301 294 290 289 305 304 318 322 314 nan
91 92 80 102 103 105 126 134 143 138 159 183 165 146 230 47 25 3 330 334 338 341 339 340 333 324 324 320 312 309 304 297 290 297 293 293 298 302 309 309 312 308 nan